Weather History for Robstown, TX

Change the Weather History Date:

Monday, January 16, 2012

  Actual Average (KCRP) Record (KCRP)
Temperature  
Mean Temperature 71 °F 57 °F  
Max Temperature 82 °F 67 °F 83 °F (1978)
Min Temperature 60 °F 47 °F 16 °F (1888)
Degree Days  
Heating Degree Days 0 9  
Month to date heating degree days 144  
Since 1 July heating degree days 495  
Cooling Degree Days 6 1  
Month to date cooling degree days 16  
Year to date cooling degree days 16  
Growing Degree Days 21 (Base 50)    
Moisture  
Dew Point 65 °F    
Average Humidity 78    
Maximum Humidity 100    
Minimum Humidity 53    
Precipitation  
Precipitation 0.00 in 0.05 in 1.46 in (1934)
Month to date precipitation 0.81  
Year to date precipitation 0.81  
Snow  
Snow 0.00 in - - ()
Month to date snowfall  
Since 1 July snowfall  
Snow Depth -    
Sea Level Pressure  
Sea Level Pressure 30.09 in    
Wind  
Wind Speed 13 mph (SSE)    
Max Wind Speed 28 mph    
Max Gust Speed 33 mph    
Visibility 9 miles    
Events      
T = Trace of Precipitation, MM = Missing Value Source: NWS Daily Summary

Daily Weather History Graph

Daily Weather History Graph

Search for Another Location

Airport:

Trip Planner

Search our weather history database for the weather conditions in past years. The results will help you decide how hot, cold, wet, or windy it might be!

Date:

Astronomy

Jan. 16, 2012 Rise Set
Actual Time 7:22 AM CST 5:58 PM CST
Civil Twilight 6:57 AM CST 6:23 PM CST
Nautical Twilight 6:28 AM CST 6:52 PM CST
Astronomical Twilight 6:00 AM CST 7:20 PM CST
Moon 12:43 AM CST (1/16) 12:05 PM CST (1/16)
Length of Visible Light 11h 25m
Length of Day
10h 35m
Last Quarter, 46% of the Moon is Illuminated
Jan 16
Last Quarter
Jan 23
New
Jan 30
First Quarter
Feb 7
Full
Feb 14
Last Quarter

Hourly Weather History & Observations

Time (CST) Temp. Heat Index Dew Point Humidity Pressure Visibility Wind Dir Wind Speed Gust Speed Precip Events Conditions
12:15 AM 63.9 °F - 64.0 °F 100% 30.18 in 10.0 mi SSE 10.4 mph - N/A   Clear
12:55 AM 64.4 °F - 64.4 °F 100% 30.17 in 10.0 mi SSE 10.4 mph - N/A   Clear
1:15 AM 64.4 °F - 64.4 °F 100% 30.17 in 10.0 mi SSE 10.4 mph - N/A   Clear
1:35 AM 64.2 °F - 64.2 °F 100% 30.17 in 10.0 mi SSE 8.1 mph - N/A   Scattered Clouds
1:55 AM 63.9 °F - 63.9 °F 100% 30.17 in 10.0 mi SSE 5.8 mph - N/A   Mostly Cloudy
2:15 AM 63.5 °F - 63.5 °F 100% 30.16 in 10.0 mi SSE 4.6 mph - N/A   Mostly Cloudy
2:35 AM 62.2 °F - 62.4 °F 100% 30.16 in 10.0 mi SSE 4.6 mph - N/A   Scattered Clouds
2:55 AM 61.3 °F - 61.5 °F 100% 30.16 in 10.0 mi SSE 4.6 mph - N/A   Clear
3:15 AM 60.6 °F - 60.8 °F 100% 30.15 in 10.0 mi SE 5.8 mph - N/A   Clear
3:35 AM 60.1 °F - - N/A% 30.15 in 10.0 mi SE 6.9 mph - N/A   Clear
3:55 AM 60.8 °F - - N/A% 30.14 in 10.0 mi SE 8.1 mph - N/A   Clear
4:15 AM 61.3 °F - - N/A% 30.13 in 10.0 mi SE 9.2 mph - N/A   Clear
4:35 AM 60.8 °F - - N/A% 30.13 in 7.0 mi SE 8.1 mph - N/A   Clear
4:55 AM 61.0 °F - - N/A% 30.13 in 10.0 mi SE 9.2 mph - N/A   Clear
5:15 AM 61.9 °F - - N/A% 30.13 in 7.0 mi ESE 8.1 mph - N/A   Clear
5:35 AM 61.5 °F - - N/A% 30.13 in 7.0 mi ESE 6.9 mph - N/A   Clear
5:55 AM 60.8 °F - - N/A% 30.13 in 7.0 mi ESE 8.1 mph - N/A   Clear
6:15 AM 60.8 °F - - N/A% 30.13 in 7.0 mi SE 8.1 mph - N/A   Clear
6:35 AM 61.3 °F - - N/A% 30.13 in 7.0 mi SE 9.2 mph - N/A   Clear
6:55 AM 61.2 °F - - N/A% 30.13 in 7.0 mi SE 8.1 mph - N/A   Clear
7:15 AM 60.3 °F - - N/A% 30.13 in 7.0 mi SE 8.1 mph - N/A   Clear
7:35 AM 60.4 °F - 60.6 °F 100% 30.14 in 5.0 mi SE 8.1 mph - N/A   Clear
7:55 AM 61.3 °F - 61.5 °F 100% 30.14 in 5.0 mi SSE 8.1 mph - N/A   Clear
8:15 AM 63.1 °F - 63.1 °F 100% 30.14 in 7.0 mi SSE 9.2 mph - N/A   Clear
8:35 AM 64.9 °F - - N/A% 30.15 in 10.0 mi South 10.4 mph - N/A   Clear
8:55 AM 67.5 °F - 67.6 °F 100% 30.15 in 10.0 mi South 12.7 mph - N/A   Scattered Clouds
9:15 AM 69.8 °F - 69.3 °F 98% 30.15 in 10.0 mi SSE 15.0 mph 19.6 mph N/A   Scattered Clouds
9:35 AM 71.8 °F - 68.2 °F 88% 30.15 in 10.0 mi SSE 21.9 mph - N/A   Scattered Clouds
9:55 AM 73.6 °F - 66.7 °F 79% 30.15 in 10.0 mi South 23.0 mph 28.8 mph N/A   Clear
10:15 AM 75.2 °F - 66.0 °F 73% 30.15 in 10.0 mi South 25.3 mph 28.8 mph N/A   Clear
10:35 AM 76.3 °F - 65.5 °F 69% 30.15 in 10.0 mi South 24.2 mph 33.4 mph N/A   Scattered Clouds
10:55 AM 77.0 °F - 65.1 °F 67% 30.16 in 10.0 mi South 26.5 mph 32.2 mph N/A   Mostly Cloudy
11:15 AM 77.7 °F - 64.2 °F 63% 30.14 in 10.0 mi South 25.3 mph 32.2 mph N/A   Mostly Cloudy
11:35 AM 78.8 °F - 64.4 °F 61% 30.13 in 10.0 mi South 21.9 mph 31.1 mph N/A   Scattered Clouds
11:55 AM 79.5 °F - 64.2 °F 59% 30.12 in 10.0 mi South 19.6 mph - N/A   Mostly Cloudy
12:15 PM 80.6 °F 82.0 °F 63.5 °F 56% 30.11 in 10.0 mi South 25.3 mph 29.9 mph N/A   Mostly Cloudy
12:35 PM 81.0 °F 82.2 °F 63.0 °F 54% 30.09 in 10.0 mi South 26.5 mph 32.2 mph N/A   Overcast
12:55 PM 81.7 °F 82.9 °F 63.0 °F 53% 30.07 in 10.0 mi South 23.0 mph 29.9 mph N/A   Overcast
1:15 PM 82.0 °F 83.3 °F 63.1 °F 53% 30.05 in 10.0 mi SSE 18.4 mph 23.0 mph N/A   Overcast
1:35 PM 81.1 °F 82.8 °F 64.8 °F 57% 30.04 in 10.0 mi SSE 18.4 mph 24.2 mph N/A   Mostly Cloudy
1:55 PM 81.3 °F 83.0 °F 64.8 °F 57% 30.03 in 10.0 mi SSE 20.7 mph 26.5 mph N/A   Mostly Cloudy
2:15 PM 81.3 °F 83.2 °F 65.1 °F 58% 30.02 in 10.0 mi South 23.0 mph 28.8 mph N/A   Mostly Cloudy
2:55 PM 82.2 °F 84.0 °F 65.3 °F 56% 29.99 in 10.0 mi SSE 25.3 mph 29.9 mph N/A   Clear
3:15 PM 80.8 °F 82.6 °F 65.3 °F 59% 29.98 in 10.0 mi SSE 25.3 mph 33.4 mph N/A   Clear
3:35 PM 80.1 °F 82.0 °F 65.5 °F 61% 29.99 in 10.0 mi SSE 25.3 mph 31.1 mph N/A   Clear
3:55 PM 79.5 °F - 65.3 °F 62% 29.99 in 10.0 mi SSE 25.3 mph 29.9 mph N/A   Clear
4:15 PM 78.6 °F - 65.3 °F 64% 29.98 in 10.0 mi SSE 27.6 mph 33.4 mph N/A   Clear
4:55 PM 77.5 °F - 65.3 °F 66% 29.98 in 10.0 mi SSE 26.5 mph 32.2 mph N/A   Clear
5:15 PM 76.8 °F - 65.1 °F 67% 29.97 in 10.0 mi SSE 23.0 mph 32.2 mph N/A   Clear
5:35 PM 76.1 °F - 65.3 °F 69% 29.98 in 10.0 mi SSE 24.2 mph 29.9 mph N/A   Clear
6:15 PM 73.9 °F - 65.5 °F 75% 30.00 in 10.0 mi SSE 21.9 mph 26.5 mph N/A   Clear
6:35 PM 73.2 °F - 65.7 °F 77% 30.01 in 10.0 mi SSE 18.4 mph 25.3 mph N/A   Clear
6:55 PM 72.7 °F - 65.7 °F 79% 30.01 in 10.0 mi SSE 17.3 mph 23.0 mph N/A   Clear
7:15 PM 72.3 °F - 65.8 °F 80% 30.02 in 10.0 mi SSE 18.4 mph 23.0 mph N/A   Clear
7:35 PM 72.1 °F - 65.8 °F 80% 30.02 in 10.0 mi SSE 16.1 mph - N/A   Clear
7:55 PM 71.8 °F - 66.2 °F 83% 30.01 in 10.0 mi SSE 16.1 mph - N/A   Clear
8:15 PM 71.4 °F - 66.7 °F 85% 30.01 in 10.0 mi SSE 18.4 mph - N/A   Clear
8:35 PM 71.2 °F - 67.8 °F 89% 30.02 in 10.0 mi SSE 16.1 mph - N/A   Clear
8:55 PM 70.9 °F - 70.0 °F 97% 30.02 in 10.0 mi SSE 15.0 mph - N/A   Clear
9:15 PM 70.7 °F - 70.7 °F 100% 30.02 in 10.0 mi SSE 12.7 mph - N/A   Clear
9:35 PM - - - N/A% 30.02 in 10.0 mi SSE 12.7 mph - N/A   Clear
9:55 PM - - - N/A% 30.02 in 10.0 mi SSE 13.8 mph - N/A   Clear
10:15 PM 70.7 °F - 70.9 °F 100% 30.02 in 10.0 mi South 16.1 mph - N/A   Scattered Clouds
10:35 PM 70.7 °F - 70.9 °F 100% 30.01 in 10.0 mi South 16.1 mph - N/A   Scattered Clouds
11:15 PM 70.7 °F - 70.9 °F 100% 30.01 in 10.0 mi South 16.1 mph - N/A   Scattered Clouds
11:35 PM 70.7 °F - 70.9 °F 100% 30.00 in 10.0 mi South 13.8 mph - N/A   Scattered Clouds
11:55 PM 70.7 °F - 70.9 °F 100% 30.01 in 10.0 mi South 12.7 mph 17.3 mph N/A   Mostly Cloudy